Tracking 18630 objects as of 22-May-2017
HD Live streaming from Space Station
objects crossing your sky now

COSMOS 2251 DEB

Track COSMOS 2251 DEB now!
10-day predictions


NORAD ID: 34473
Int'l Code: 1993-036TS
Perigee: 729.3 km
Apogee: 768.4 km
Inclination: 74.0 °
Period: 99.6 minutes
Semi major axis: 7119 km
RCS: 0.0156 m2 (small)
Launch date: June 16, 1993
Source: Commonwealth of Independent States (former USSR) (CIS)
Launch site: PLESETSK MISSILE AND SPACE COMPLEX (PKMTR)

Note: This is SATELLITE DEBRIS
Your satellite tracking list
Your tracking list is empty





NASA's NSSDC Master Catalog

Two Line Element Set (TLE):
1 34473U 93036TS  17141.70685600 +.00001066 +00000-0 +31122-3 0  9993
2 34473 074.0338 227.9522 0027423 321.0441 193.9509 14.45101305433336
Source of the keplerian elements: AFSPC